This is the latest recevied weather packets stored in our database for station/object KI6PPU. If no packets are shown the sender has not sent any weather packets the latest 10 day(s).
| Time | Temp. | Humidity | Pressure | Rain* | Wind** | Luminosity | Snow |
|---|---|---|---|---|---|---|---|
| 1778257284 | 20.56° C | 71% | 1020.3 hPa | 0 mm | - | 478 W/m² | - |
| 1778256980 | 20° C | 69% | 1020.2 hPa | 0 mm | - | 558 W/m² | - |
| 1778256678 | 20° C | 73% | 1020.4 hPa | 0 mm | - | 526 W/m² | - |
| 1778256376 | 19.44° C | 72% | 1020.4 hPa | 0 mm | - | 453 W/m² | - |
| 1778256073 | 20° C | 72% | 1020.4 hPa | 0 mm | - | 390 W/m² | - |
| 1778255770 | 20° C | 73% | 1020.2 hPa | 0 mm | - | 426 W/m² | - |
| 1778255467 | 20° C | 72% | 1020.2 hPa | 0 mm | - | 367 W/m² | - |
| 1778255164 | 19.44° C | 76% | 1020.2 hPa | 0 mm | - | 395 W/m² | - |
| 1778254861 | 18.89° C | 74% | 1020.2 hPa | 0 mm | - | 331 W/m² | - |
| 1778254558 | 19.44° C | 76% | 1020.1 hPa | 0 mm | - | 327 W/m² | - |
| 1778254254 | 18.89° C | 76% | 1020.3 hPa | 0 mm | - | 321 W/m² | - |
| 1778253952 | 18.33° C | 76% | 1020.2 hPa | 0 mm | - | 301 W/m² | - |
| 1778253646 | 18.89° C | 77% | 1020.2 hPa | 0 mm | - | 309 W/m² | - |
| 1778253343 | 18.89° C | 73% | 1020.2 hPa | 0 mm | - | 265 W/m² | - |
| 1778253040 | 17.78° C | 82% | 1020.1 hPa | 0 mm | - | 206 W/m² | - |
| 1778252738 | 17.22° C | 82% | 1020.2 hPa | 0 mm | - | 257 W/m² | - |
| 1778252433 | 17.22° C | 83% | 1020.1 hPa | 0 mm | - | 240 W/m² | - |
| 1778252130 | 16.11° C | 82% | 1020 hPa | 0 mm | - | 180 W/m² | - |
| 1778251826 | 16.67° C | 82% | 1019.9 hPa | 0 mm | - | 229 W/m² | - |
| 1778251524 | 16.11° C | 84% | 1020 hPa | 0 mm | - | 242 W/m² | - |
| 1778251221 | 16.11° C | 82% | 1020.1 hPa | 0 mm | - | 133 W/m² | - |
| 1778250919 | 15.56° C | 84% | 1019.9 hPa | 0 mm | - | 99 W/m² | - |
| 1778250615 | 14.44° C | 87% | 1020 hPa | 0 mm | - | 98 W/m² | - |
| 1778250313 | 13.33° C | 92% | 1020 hPa | 0 mm | - | 92 W/m² | - |
| 1778250009 | 12.22° C | 96% | 1020 hPa | 0 mm | - | 78 W/m² | - |
* Rain latest hour (hover to see other rain measurements)
** Current wind speed in m/s (hover to see current wind gust speed)